Regional Weather Roundup
Issued by NWS Charleston, SC

Current Version | Previous Version | Graphics & Text | Print | Product List | Glossary On
Versions: 1 2 3 4 5 6 7 8 9 10 11 12 13 14 15 16 17 18 19 20 21 22 23 24 25 26 27 28 29 30 31 32 33 34 35 36 37 38 39 40 41 42 43 44 45 46 47 48 49 50
000
ASUS42 KCHS 210127
RWRCHS

Regional Weather Roundup
National Weather Service Charleston SC
800 PM EST SAT JAN 20 2018

NOTE: "fair" indicates few or no clouds below 12,000 feet with no
significant weather and/or obstructions to visibility.

Not all stations are quality controlled. Use data with caution,
especially dewpoint observations.

SCZ027-030-031-034>040-042>050-210200-
...Southeast South Carolina...

CITY           SKY/WX    TMP DP  RH WIND       PRES   REMARKS
N Charleston   FAIR      46  27  47 SW6       30.25R
Waterfront Prk NOT AVBL
Mount Pleasant FAIR      48  30  49 SW6       30.25R
Johns Island   FAIR      50  32  50 SW8       30.26R
Pinopolis        N/A     54  36  50 VRB2      30.15R
Moncks Corner  FAIR      45  30  57 CALM      30.24R
Summerville    FAIR      46  30  53 S3        30.26R
Beaufort MCAS  FAIR      50  32  50 S7        30.27R
Beaufort Arpt  FAIR      46  32  57 S6        30.25S
Hilton Head Is FAIR      50  30  46 S8        30.27R
Walterboro     FAIR      46  34  61 SE5       30.26R
Allendale      FAIR      46  39  76 CALM      30.24R

...Southern Midlands and Pee Dee...

CITY           SKY/WX    TMP DP  RH WIND       PRES   REMARKS
Georgetown     FAIR      45  30  57 CALM      30.24F
Kingstree      FAIR      41  32  70 CALM      30.22F
Orangeburg     FAIR      46  36  68 CALM      30.23R
Barnwell       NOT AVBL
Aiken          FAIR      45  36  70 CALM      30.26R
Manning        FAIR      41  10  28 MISG      30.23S
Columbia       FAIR      44  35  70 CALM      30.22S
Sumter         FAIR      43  33  66 CALM      30.20R
Florence       FAIR      45  33  63 CALM      30.23R HAZE
Myrtle Beach   FAIR      46  32  58 W6        30.25R
N Myrtle Beach FAIR      46  35  65 SW3       30.23R

$$

GAZ063-065-086>088-099>101-113>116-118-119-134>141-150-210200-
...Southeast Georgia...

CITY           SKY/WX    TMP DP  RH WIND       PRES   REMARKS
Savannah Arpt  FAIR      49  30  48 S8        30.27R
Hunter AAF     FAIR      48  32  52 S5        30.24R
Fort Stewart   FAIR      47  35  62 CALM      30.24S
Statesboro     FAIR      46  37  73 CALM      30.25S
Sylvania       FAIR      48  42  80 CALM      30.25R
Claxton        FAIR      47  38  72 CALM      30.25F

...CSRA, Central and far Southeast Georgia...

CITY           SKY/WX    TMP DP  RH WIND       PRES   REMARKS
Thomson        FAIR      42  37  79 SW5       30.28R
Augusta-Bush   FAIR      44  38  79 CALM      30.22S
Augusta-Daniel FAIR      56  37  49 CALM      30.23S
Swainsboro     FAIR      48  41  76 CALM      30.25S
Vidalia        FAIR      52  41  66 CALM      30.25S
Eastman        FAIR      47  35  61 CALM      30.27S
Hazlehurst     FAIR      52  31  45 CALM      30.25S
Alma           FAIR      45  36  70 CALM      30.26S
Waycross       FAIR      46  31  56 S5        30.28R
Jesup          FAIR      46  32  57 CALM      30.28R
Baxley         FAIR      46  30  53 CALM      30.26R
Brunswick      FAIR      45  32  61 CALM      30.29R
Saint Simons   FAIR      50  32  50 VRB3      30.29R

$$

SCZ027-028-034-036>038-045-046-048>050-GAZ119-141-210200-
...Lake and Supplemental Coastal Observations...

STATION/POSITION TIME  TEMP    WIND        PRES    WAVE   SWELL
                       AIR SEA DIR/SP/G            HT/PER HT/PER/DIR
                 (UTC) (F)     (DEG/KT/KT) (MB)    (FT/S) (FT/S/D)
Winyah Bay       0030   49     240/  5     1024.0R
Lake Murray      0020   51      CALM  /  1 1022.7
ACE Basin NERRS  0045   47        CALM     1024.0S
Fort Pulaski     0100   48 45  210/  4/  5 1025.1
Sapelo Island    0100   47     180/  5     1025.0

$$

ANZ835-935-AMZ111-154-330-350-352-354-370-450-454-472-210200-
...C-MAN and Buoy Observations...

STATION/POSITION TIME  TEMP    WIND        PRES    WAVE   SWELL
                       AIR SEA DIR/SP/G            HT/PER HT/PER/DIR
                 (UTC) (F)     (DEG/KT/KT) (MB)    (FT/S) (FT/S/D)
Buoy 41004       0100   61 69  240/ 14/ 17 1024.0
Buoy 41008       0050   53 51  170/  8/  8 1025.1R   1/10   2/ 60/10
Folly Beach CMAN 0100   50     220/  7/  9 1024.8R
Capers Nearshore 0108   47     240/  8/ 12 1024.0R
Fripp Nearshore  0108   47 46  220/ 12/ 16 1024.5R


STATION/POSITION TIME  TEMP    WIND        PRES    WAVE   SWELL
                       AIR SEA DIR/SP/G            HT/PER HT/PER/DIR
                 (UTC) (F)     (DEG/KT/KT) (MB)    (FT/S) (FT/S/D)
5E St. Marys GA  0100      49                N/A     1/ 9
Frying Pan Buoy  0100   59 58  250/ 16/ 17 1023.3
Buoy 41025       0100   62 69  230/ 23/ 27 1021.4
Cape Lookout NC  0100          230/ 10/ 14 1022.4R
Buoy 41002       0050   67 70  220/ 12/ 16 1024.8R   4/ 6   3/280/ 6
Buoy 41010       NOT AVBL
St Augustine FL  0100   53 51  200/  1/  1 1026.0R


$$



USA.gov is the U.S. government's official web portal to all federal, state and local government web resources and services.